Lid_Strength_Index
7 7 7 8 8 8 7 6 6 3 3 3 2 2 2 1 1 0 1 3 0 -1 -2 -2 -2 -2 -2 -2 -2 -2 -2 -2 -2 -2 -2 -2 -1 -1 -1 -0 0 0 0
7 6 7 7 8 8 7 6 6 3 3 3 2 2 2 1 1 1 1 0 1 -1 -1 -1 -2 -2 -2 -2 -2 -2 -2 -2 -2 -1 -2 -2 -1 -1 -0 -0 -0 -0 0
7 7 7 7 8 7 6 6 5 3 3 3 3 3 3 2 2 2 0 1 1 1 -0 -1 -2 -2 -2 -2 -2 -2 -2 -2 -1 -1 -1 -0 -0 -0 0 -0 0 0 1
6 7 7 7 7 7 6 6 5 3 3 3 3 4 3 2 2 1 0 0 1 -0 1 0 -1 -2 -2 -2 -2 -2 -2 -1 -1 -0 0 -0 -0 -0 -0 -0 0 0 0
6 6 7 7 7 7 6 5 6 4 3 3 3 3 3 3 3 2 1 0 0 0 1 1 1 -0 -1 -2 -2 -2 -2 -1 -0 -0 -0 -0 -0 -0 -0 1 1 0 -0
6 6 7 7 7 7 7 6 4 3 3 3 3 4 3 3 3 2 1 1 0 0 0 0 -0 0 -0 -2 -2 -2 -1 -0 -1 -1 -0 -0 -0 -0 -0 -0 -1 -1 -0
7 6 6 7 7 7 7 6 4 3 3 2 3 3 3 3 4 3 2 1 1 1 1 1 0 -1 -1 -1 -2 -2 -2 -2 -1 -1 -1 -1 -1 -1 -1 -1 -0 -0 -0
7 6 6 7 7 7 7 6 4 4 5 5 4 4 5 4 4 4 3 3 3 3 3 2 1 1 -0 -0 -1 -2 -2 -2 -1 -1 -1 -2 -2 -1 -0 -0 -0 0 -0
7 6 6 6 6 7 7 7 5 5 6 6 6 5 5 6 6 5 4 4 3 3 3 2 2 2 1 1 0 -0 -0 -1 -1 -1 -1 -2 -1 -1 -1 -0 -0 -0 -0
7 6 6 6 6 6 7 7 5 6 5 7 6 6 5 4 6 6 6 6 5 5 4 4 4 3 2 2 4 4 2 1 -0 -1 -1 -1 0 0 -0 -0 -0 0 0
7 7 6 6 6 6 6 6 6 6 6 6 6 6 6 5 5 5 7 6 6 5 4 4 4 4 3 3 3 4 3 2 1 1 0 -0 0 1 -1 -0 -0 0 1
7 7 6 6 6 6 6 6 6 6 6 6 6 6 6 6 6 6 7 7 7 6 5 5 5 5 4 3 6 6 4 2 1 1 1 1 1 -0 0 -0 1 2 2
7 7 6 6 6 5 6 6 6 6 6 6 6 6 5 5 5 4 5 7 8 7 6 5 5 5 5 4 5 6 5 3 2 2 2 2 0 1 1 1 2 3 3
6 6 7 6 6 5 6 6 6 6 6 6 6 6 6 5 5 4 5 6 7 8 7 7 5 5 5 5 7 6 4 4 3 2 2 2 1 1 1 2 3 3 4
7 7 7 7 6 5 5 6 6 6 6 6 6 6 6 6 4 6 5 5 6 8 8 7 7 6 6 5 6 3 3 7 4 3 3 2 2 2 2 2 3 3 4
7 7 7 6 6 6 5 5 6 6 6 6 6 6 6 6 5 5 5 6 6 6 9 7 7 6 6 6 7 5 6 7 6 5 4 4 3 3 3 3 3 3 4
6 7 7 6 6 6 5 5 6 6 6 6 6 6 6 6 5 4 5 6 6 6 8 8 7 6 7 7 6 6 6 5 5 6 5 4 4 4 4 4 4 4 5
6 6 6 6 6 5 5 5 6 6 6 6 6 7 6 5 5 4 5 6 6 6 6 8 8 8 8 8 8 8 8 8 8 7 6 5 5 5 5 5 5 5 5
6 6 6 6 6 5 5 5 5 5 5 5 6 7 6 5 5 4 5 6 6 5 5 7 9 8 9 8 9 9 10 11 10 8 7 7 6 6 6 6 6 6 6
6 6 6 6 6 5 5 5 5 5 5 5 5 6 5 5 5 5 6 7 6 6 6 7 8 9 9 10 9 9 12 14 14 9 9 9 9 8 7 7 7 8 7
6 6 6 6 6 5 5 5 5 5 6 6 6 6 5 6 8 6 6 7 6 6 7 8 8 10 11 13 11 12 12 13 14 14 12 10 10 9 9 9 9 9 7
6 6 6 6 6 5 8 8 6 5 5 6 6 7 7 11 8 8 8 8 6 7 8 8 9 9 11 10 12 13 12 13 12 14 13 12 11 11 10 10 9 9 8
7 6 6 6 6 5 8 8 8 5 5 5 6 7 8 8 9 8 9 9 9 8 7 7 8 8 10 10 11 13 12 13 12 13 12 12 13 13 12 11 9 8 8
7 7 6 6 6 6 8 8 9 5 5 5 6 6 7 9 8 8 7 8 9 9 8 8 7 8 8 10 8 9 11 13 13 13 13 12 13 13 13 13 9 9 8
7 7 6 6 6 6 9 9 7 6 6 6 6 6 7 7 10 9 8 9 10 11 10 9 9 9 9 9 9 11 13 13 13 13 14 13 13 13 13 15 13 9 9
6 7 7 6 7 6 9 9 6 5 6 6 8 8 11 7 10 9 8 9 10 11 11 11 11 10 10 10 10 9 10 12 13 13 14 12 14 13 13 16 14 13 12